Regional Weather Roundup
Issued by NWS

Home | Current Version | Previous Version | Graphics & Text | Print | Product List | Glossary On
Versions: 1 2 3 4 5 6 7 8 9 10 11 12 13 14 15 16 17 18 19 20 21 22 23 24 25 26 27 28 29 30 31 32 33 34 35 36 37 38 39 40 41 42 43 44 45 46 47 48 49 50
000
ASUS43 KIND 270059
RWRIN

WEATHER ROUNDUP FOR INDIANA
NATIONAL WEATHER SERVICE INDIANAPOLIS IN
900 PM EDT TUE AUG 26 2014

NOTE: "FAIR" INDICATES FEW OR NO CLOUDS BELOW 12,000 FEET WITH NO
SIGNIFICANT WEATHER AND/OR OBSTRUCTIONS TO VISIBILITY.

* - STATION DOES NOT REPORT WEATHER SUCH AS PRECIPITATION OR FOG.

+ - STATION NOT QUALITY CONTROLLED BY THE NATIONAL WEATHER SERVICE.
    USE DATA WITH CAUTION...ESPECIALLY DEWPOINT AND RELATIVE
    HUMIDITY OBSERVATIONS.

INZ001>003-010>013-019-020-270200-
NORTHWEST INDIANA

CITY           SKY/WX    TMP DP  RH WIND       PRES   REMARKS
GARY /AIRPORT/ PTCLDY    73  70  88 NE6       30.07F
KNOX *+        PTCLDY    72  69  89 NE3       30.07S
MONTICELLO +   PTCLDY    71  70  96 CALM      30.06R
VALPARAISO       N/A     72  69  90 NE5       30.08R

$$

LMZ046-743>745-270200-
SOUTHERN LAKE MICHIGAN

STATION/POSITION TIME  TEMP WIND        PRES
                       AIR  DIR/SP/G
                 (UTC) (F)  (DEG/KT/KT) (MB)
MICHIGAN CITY    0000   71   10/ 10/ 11   N/A

$$

INZ004-005-014>016-021>024-270200-
NORTH CENTRAL INDIANA

CITY           SKY/WX    TMP DP  RH WIND       PRES   REMARKS
ELKHART        MOCLDY    72  72 100 CALM      30.08  FOG
GOSHEN         CLEAR     72  70  93 S3        30.08F
SOUTH BEND     CLEAR     72  69  90 CALM      30.08S
WARSAW +       PTCLDY    70  68  94 CALM      30.09R

$$

INZ006>009-017-018-025>027-270200-
NORTHEAST INDIANA

CITY           SKY/WX    TMP DP  RH WIND       PRES   REMARKS
ANGOLA *+      CLEAR     73  70  88 W5        30.09R
FORT WAYNE     MOCLDY    75  70  84 CALM      30.09S

$$

INZ028-029-035-036-043>045-051>053-270200-
WEST CENTRAL INDIANA

CITY           SKY/WX    TMP DP  RH WIND       PRES   REMARKS
GREENCASTLE +  MOCLDY    72  70  94 CALM      30.08R
LAFAYETTE      MOCLDY    72  69  90 S3        30.05S
TERRE HAUTE    MOCLDY    73  70  90 SE6       30.05F

$$

INZ030>032-037>040-046>048-054>057-064-065-270200-
CENTRAL INDIANA

CITY           SKY/WX    TMP DP  RH WIND       PRES   REMARKS
FRANKFORT +    MOCLDY   N/A N/A N/A CALM      30.08S
INDIANAPOLIS   CLOUDY    74  69  85 SE3       30.06S
-EAGLE CREEK   CLOUDY    76  67  73 CALM      30.06F
KOKOMO *+      MOCLDY    72  70  94 CALM      30.07R
MT COMFORT *+  MOCLDY    72 N/A N/A CALM      30.08F
SHELBYVILLE    MOCLDY    74  69  85 NW5       30.06R

$$

INZ033-034-041-042-049-050-058-059-270200-
EAST CENTRAL INDIANA

CITY           SKY/WX    TMP DP  RH WIND       PRES   REMARKS
MUNCIE         CLOUDY    74  69  85 CALM      30.07F

$$

INZ060-061-067>069-081>083-085>088-270200-
SOUTHWEST INDIANA

CITY           SKY/WX    TMP DP  RH WIND       PRES   REMARKS
EVANSVILLE     CLEAR     86  75  69 NE3       30.06S HX  95

$$

INZ062-063-066-070>080-084-089>092-270200-
SOUTH CENTRAL AND SOUTHEAST INDIANA

CITY           SKY/WX    TMP DP  RH WIND       PRES   REMARKS
BLOOMINGTON    PTCLDY    75  70  84 S5        30.07F
SEYMOUR +      MOCLDY    75  68  78 CALM      30.07S HAZE

$$



USA.gov is the U.S. government's official web portal to all federal, state and local government web resources and services.